Weather History for KGUY - June, 2012

Change the Weather History Date:

Friday, June 15, 2012

  Actual Average Record
Temperature  
Mean Temperature 77 °F 74 °F  
Max Temperature 90 °F 87 °F 103 °F (2006)
Min Temperature 63 °F 61 °F 44 °F (2001)
Degree Days  
Heating Degree Days 0 0  
Month to date heating degree days 0 6  
Since 1 June heating degree days 0 6  
Since 1 July heating degree days 3791 4455  
Cooling Degree Days 12 9  
Month to date cooling degree days 168 111  
Year to date cooling degree days 433 219  
Since 1 June cooling degree days 168 111  
Growing Degree Days 26 (Base 50)    
Moisture  
Dew Point 58 °F    
Average Humidity 57    
Maximum Humidity 84    
Minimum Humidity 29    
Precipitation  
Precipitation T in 0.11 in 0.29 in (1999)
Month to date precipitation 2.08 1.76  
Year to date precipitation 5.74 8.01  
Snow  
Snow 0.00 in - - ()
Month to date snowfall 0.0  
Since 1 June snowfall 0.0  
Since 1 July snowfall 9.1  
Snow Depth 0.00 in    
Sea Level Pressure  
Sea Level Pressure 29.83 in    
Wind  
Wind Speed 11 mph (SE)    
Max Wind Speed 32 mph    
Max Gust Speed 39 mph    
Visibility 10 miles    
Events Rain , Thunderstorm    
T = Trace of Precipitation, MM = Missing Value Source: NWS Daily Summary

Daily Weather History Graph

Daily Weather History Graph

Search for Another Location

Airport or City:

Trip Planner

Search our weather history database for the weather conditions in past years. The results will help you decide how hot, cold, wet, or windy it might be!

Date:

Astronomy

Jun. 15, 2012 Rise Set
Actual Time 6:26 AM CDT 9:06 PM CDT
Civil Twilight 5:56 AM CDT 9:37 PM CDT
Nautical Twilight 5:18 AM CDT 10:15 PM CDT
Astronomical Twilight 4:35 AM CDT 10:58 PM CDT
Moon 3:38 AM CDT (6/15) 5:51 PM CDT (6/15)
Length of Visible Light 15h 41m
Length of Day
14h 39m
Waning Crescent, 13% of the Moon is Illuminated
Jun 15
Waning Crescent
Jun 19
New
Jun 26
First Quarter
Jul 3
Full
Jul 10
Last Quarter

Hourly Weather History & Observations

Time (CDT) Temp. Heat Index Dew Point Humidity Pressure Visibility Wind Dir Wind Speed Gust Speed Precip Events Conditions
12:53 AM 66.9 °F - 57.9 °F 73% 29.74 in 10.0 mi ENE 3.5 mph - N/A   Clear
1:53 AM 69.1 °F - 57.9 °F 68% 29.79 in 10.0 mi ENE 15.0 mph - N/A   Clear
2:53 AM 66.0 °F - 57.9 °F 75% 29.84 in 10.0 mi East 9.2 mph - N/A   Clear
3:53 AM 64.0 °F - 57.0 °F 78% 29.82 in 10.0 mi SSE 6.9 mph - N/A   Clear
4:53 AM 64.0 °F - 57.0 °F 78% 29.85 in 10.0 mi ENE 13.8 mph 21.9 mph N/A   Clear
5:31 AM 62.6 °F - 57.2 °F 82% 29.92 in 10.0 mi East 29.9 mph 39.1 mph N/A Thunderstorm Scattered Clouds
5:46 AM 62.6 °F - 57.2 °F 82% 29.99 in 10.0 mi Variable 6.9 mph 21.9 mph 0.00 in Rain Light Rain
5:53 AM 63.0 °F - 57.0 °F 81% 29.86 in 10.0 mi SSE 8.1 mph - 0.00 in   Partly Cloudy
7:53 AM 63.0 °F - 57.9 °F 84% 29.89 in 10.0 mi North 3.5 mph - N/A   Clear
8:53 AM 66.0 °F - 57.9 °F 75% 29.90 in 10.0 mi Calm Calm - N/A   Partly Cloudy
9:53 AM 72.0 °F - 59.0 °F 64% 29.86 in 10.0 mi South 9.2 mph - N/A   Clear
10:53 AM 79.0 °F - 60.1 °F 52% 29.85 in 10.0 mi South 8.1 mph - N/A   Clear
11:53 AM 84.0 °F 83.5 °F 57.9 °F 41% 29.84 in 10.0 mi SSE 12.7 mph - N/A   Clear
12:53 PM 87.1 °F 85.9 °F 57.0 °F 36% 29.83 in 10.0 mi South 13.8 mph 20.7 mph N/A   Clear
1:53 PM 88.0 °F 86.9 °F 57.9 °F 36% 29.83 in 10.0 mi South 13.8 mph 19.6 mph N/A   Clear
2:53 PM 90.0 °F 89.1 °F 59.0 °F 35% 29.82 in 10.0 mi South 13.8 mph 20.7 mph N/A   Clear
3:53 PM 90.0 °F 88.6 °F 57.0 °F 33% 29.81 in 10.0 mi South 12.7 mph 24.2 mph N/A   Partly Cloudy
4:53 PM 89.1 °F 87.7 °F 57.0 °F 34% 29.79 in 10.0 mi SSE 17.3 mph 24.2 mph N/A   Partly Cloudy
5:53 PM 89.1 °F 86.9 °F 54.0 °F 30% 29.78 in 10.0 mi SSE 20.7 mph 28.8 mph N/A   Clear
6:53 PM 88.0 °F 85.9 °F 54.0 °F 31% 29.76 in 10.0 mi SSE 19.6 mph 26.5 mph N/A   Clear
7:53 PM 86.0 °F 84.2 °F 54.0 °F 33% 29.77 in 10.0 mi SSE 12.7 mph 23.0 mph N/A   Clear
8:53 PM 81.0 °F 81.0 °F 57.0 °F 44% 29.79 in 10.0 mi SSE 9.2 mph - N/A   Clear
9:53 PM 77.0 °F - 59.0 °F 54% 29.78 in 10.0 mi SSE 9.2 mph - N/A   Clear
10:53 PM 77.0 °F - 62.1 °F 60% 29.81 in 10.0 mi SSE 10.4 mph - N/A   Clear
11:53 PM 75.9 °F - 64.9 °F 69% 29.81 in 10.0 mi SSE 8.1 mph - N/A   Clear